Vorticity
3 7 8 12 6 7 6 4 8 12 11 11 13 9 12 9 12 11 9 7 5 3 5 8 7 6 21 -4 4 10 13 16 15 12 5 3 3 5 10 12 16 12 13
6 7 7 12 6 6 9 5 7 11 11 11 12 12 10 8 9 12 9 6 6 6 5 5 7 9 -0 26 5 8 9 9 12 16 17 13 11 11 8 5 4 4 6
1 15 14 5 7 10 10 8 6 7 7 10 12 13 11 8 7 8 8 10 8 10 9 7 5 11 10 3 11 19 8 3 2 1 6 9 10 11 13 12 12 9 12
9 19 13 4 10 9 11 9 8 8 8 8 9 14 14 7 7 6 5 6 13 12 9 10 9 8 6 14 12 10 6 10 12 12 9 9 11 10 11 13 15 11 14
19 12 4 10 7 10 11 10 9 3 8 9 9 11 12 9 5 3 2 4 7 7 12 9 9 11 7 8 7 7 9 9 7 8 5 5 1 0 4 6 5 -10 3
14 8 11 2 6 9 6 7 7 3 7 7 8 11 11 13 7 15 5 5 7 10 11 12 8 6 6 2 3 2 2 13 11 7 4 -1 4 -2 2 -1 -0 2 3
13 12 2 4 12 12 7 5 7 10 9 6 7 9 10 4 7 7 7 8 8 10 8 6 6 8 11 10 12 11 16 11 5 3 9 10 6 8 3 -4 -3 -4 1
14 -8 9 10 12 9 5 11 12 9 9 5 5 8 9 10 10 5 4 7 8 4 3 3 6 7 7 -1 1 2 4 5 8 9 2 3 7 10 10 11 4 9 5
-7 4 11 11 -4 7 6 13 12 9 9 5 4 6 7 8 9 10 8 1 3 3 3 5 7 7 3 8 10 8 1 4 3 1 1 3 3 3 7 9 16 13 8
-14 10 15 4 5 2 6 5 15 8 9 6 9 12 12 10 6 -1 1 5 5 4 3 4 6 10 8 4 7 9 11 9 7 6 8 10 14 11 14 17 15 8 10
-9 16 11 3 2 2 5 14 11 11 11 10 3 -6 2 6 6 11 7 6 5 4 4 5 2 14 9 12 14 14 15 16 27 20 18 24 18 13 9 9 8 8 13
-7 11 15 3 2 4 15 11 8 8 2 -2 3 4 8 8 3 5 6 10 1 10 6 5 4 5 9 4 9 4 -1 3 5 -4 27 11 8 11 18 16 14 11 10
3 13 6 4 5 11 12 3 8 4 1 1 6 11 12 11 4 0 7 4 11 15 16 12 13 14 16 9 6 7 5 16 17 14 24 25 17 10 6 18 16 12 14
6 8 15 15 10 21 -2 6 11 8 7 11 8 11 8 5 6 8 4 8 7 26 -5 9 5 2 -5 -9 20 14 21 21 25 15 15 14 21 20 19 23 22 21 21
-2 21 8 5 10 12 -1 8 6 10 9 13 12 13 8 9 13 13 8 -1 27 -6 7 -5 -25 2 8 19 23 7 23 18 14 17 15 22 21 19 20 21 20 18 18
1 7 2 8 12 9 4 7 1 11 8 9 17 14 5 21 17 20 9 5 7 9 5 -7 10 20 7 10 13 29 21 16 19 20 22 11 19 19 16 16 18 18 16
5 10 -1 8 16 12 7 11 9 14 16 16 13 10 4 4 10 8 9 11 8 7 5 9 7 16 12 16 29 19 21 14 19 17 4 17 14 15 14 16 17 23 16
4 5 -3 -3 16 15 4 1 21 19 15 16 2 -3 9 10 4 4 12 1 5 8 15 16 10 16 16 28 19 19 16 19 13 12 11 11 10 15 17 7 4 0 15
9 3 -2 8 19 10 5 13 16 19 15 11 11 6 10 9 1 1 16 20 21 16 10 23 25 20 18 12 12 14 22 8 15 8 12 8 13 16 12 12 16 22 15
2 -12 20 15 9 10 19 19 15 9 3 7 11 12 13 15 11 12 14 13 14 18 14 10 9 8 14 17 13 13 19 8 12 8 10 12 17 15 11 10 17 11 15
-7 17 10 7 9 11 10 6 2 4 8 10 10 15 19 18 15 12 10 7 6 15 14 14 16 11 16 17 19 16 17 10 11 9 10 10 16 13 12 11 10 16 13
10 11 14 15 15 4 4 6 10 14 14 15 14 11 10 8 11 11 11 15 14 12 13 13 16 17 17 19 18 14 14 12 11 12 9 10 14 14 10 12 12 10 13
18 12 4 2 6 10 18 17 14 13 12 12 10 10 12 13 16 15 14 15 15 16 17 17 17 16 17 18 16 13 12 12 12 13 10 11 11 15 10 11 14 14 11
6 9 14 18 21 17 14 12 11 12 16 19 24 26 26 26 27 25 23 18 14 10 9 9 12 15 17 16 16 13 12 12 13 13 11 11 12 15 12 13 15 16 14
17 19 17 13 13 16 21 26 27 28 26 23 19 15 14 14 14 17 22 27 30 26 23 20 13 10 14 17 16 14 13 13 15 13 11 11 12 14 12 11 11 16 18
14 19 23 24 21 19 17 15 16 18 21 22 18 15 13 13 13 14 14 13 14 20 23 23 20 17 13 13 15 15 15 15 14 12 11 11 11 11 13 11 10 9 9
Height
5753 5749 5745 5741 5738 5734 5729 5725 5720 5716 5711 5708 5705 5702 5700 5698 5696 5694 5692 5691 5690 5688 5688 5688 5687 5686 5686 5685 5685 5685 5685 5686 5686 5688 5689 5690 5691 5693 5693 5696 5699 5699 5701
5746 5742 5738 5734 5731 5726 5721 5717 5712 5708 5704 5700 5697 5695 5693 5690 5689 5687 5686 5684 5682 5680 5678 5677 5677 5677 5676 5676 5676 5676 5677 5677 5678 5678 5679 5679 5679 5680 5683 5684 5686 5687 5690
5739 5735 5731 5727 5722 5718 5713 5709 5705 5700 5696 5693 5689 5687 5685 5683 5680 5678 5677 5676 5673 5672 5670 5668 5667 5667 5666 5665 5665 5666 5667 5667 5667 5668 5669 5669 5670 5667 5670 5673 5674 5676 5678
5731 5727 5722 5718 5713 5709 5704 5700 5697 5692 5689 5684 5680 5677 5676 5674 5672 5670 5668 5666 5665 5662 5660 5659 5657 5656 5656 5655 5654 5654 5655 5655 5655 5656 5656 5657 5659 5659 5658 5661 5662 5663 5663
5722 5717 5713 5708 5704 5700 5695 5691 5688 5684 5680 5676 5672 5668 5666 5664 5663 5660 5658 5655 5653 5652 5651 5649 5648 5646 5645 5644 5643 5643 5644 5644 5644 5645 5645 5646 5647 5648 5650 5649 5650 5651 5653
5711 5708 5703 5699 5695 5690 5686 5682 5679 5675 5671 5666 5663 5659 5656 5653 5651 5649 5647 5644 5643 5641 5639 5639 5637 5636 5635 5634 5632 5632 5631 5632 5632 5632 5633 5633 5634 5634 5636 5638 5636 5635 5639
5702 5698 5694 5690 5685 5680 5677 5673 5668 5664 5660 5656 5653 5649 5646 5643 5640 5638 5635 5633 5630 5628 5627 5625 5624 5623 5622 5621 5619 5619 5617 5616 5617 5617 5617 5617 5617 5618 5619 5621 5622 5622 5623
5692 5687 5683 5678 5675 5671 5666 5663 5658 5654 5650 5646 5642 5639 5635 5632 5629 5626 5624 5622 5619 5616 5614 5612 5611 5610 5609 5607 5606 5605 5603 5602 5601 5600 5599 5600 5599 5599 5600 5601 5602 5605 5606
5679 5676 5671 5667 5664 5660 5655 5651 5646 5642 5638 5634 5630 5627 5623 5620 5617 5615 5612 5609 5607 5604 5601 5599 5597 5595 5593 5592 5590 5589 5587 5586 5585 5584 5583 5581 5581 5580 5581 5580 5581 5583 5586
5669 5664 5660 5656 5652 5648 5644 5639 5635 5632 5627 5623 5619 5616 5612 5608 5606 5602 5599 5596 5593 5590 5587 5585 5582 5579 5577 5574 5572 5571 5570 5567 5566 5565 5563 5561 5561 5560 5559 5559 5560 5561 5562
5658 5656 5649 5644 5640 5636 5631 5627 5622 5619 5615 5611 5607 5604 5599 5596 5592 5589 5585 5581 5578 5575 5571 5568 5566 5563 5560 5557 5555 5553 5551 5549 5547 5545 5543 5541 5539 5537 5538 5538 5538 5539 5540
5648 5643 5639 5633 5628 5623 5618 5614 5610 5605 5602 5597 5593 5589 5584 5580 5576 5573 5569 5565 5561 5557 5554 5550 5547 5544 5541 5538 5535 5533 5530 5528 5526 5524 5522 5520 5518 5516 5515 5515 5514 5516 5517
5634 5629 5625 5620 5615 5609 5604 5600 5596 5592 5587 5582 5577 5572 5567 5563 5559 5556 5551 5547 5543 5538 5534 5531 5527 5525 5523 5520 5516 5513 5511 5508 5505 5501 5497 5495 5494 5493 5494 5492 5491 5492 5494
5619 5615 5609 5605 5600 5595 5590 5585 5580 5575 5570 5564 5559 5554 5549 5544 5540 5537 5533 5529 5525 5520 5515 5511 5507 5505 5503 5499 5496 5492 5489 5485 5481 5477 5473 5471 5470 5470 5470 5470 5469 5470 5471
5604 5599 5595 5590 5585 5580 5574 5568 5562 5556 5551 5545 5539 5535 5530 5525 5521 5517 5513 5510 5505 5500 5495 5491 5487 5483 5479 5476 5472 5467 5464 5461 5458 5455 5453 5451 5449 5448 5448 5448 5449 5449 5450
5590 5584 5578 5573 5567 5562 5556 5550 5544 5538 5532 5527 5521 5516 5511 5506 5501 5497 5493 5489 5485 5480 5475 5469 5465 5461 5457 5453 5450 5446 5442 5439 5437 5436 5434 5433 5431 5430 5430 5430 5431 5431 5431
5572 5566 5560 5555 5549 5542 5536 5530 5524 5518 5512 5506 5501 5496 5491 5487 5482 5477 5470 5467 5463 5460 5455 5450 5445 5441 5436 5432 5429 5426 5423 5421 5419 5419 5418 5417 5416 5415 5414 5414 5414 5414 5414
5554 5547 5541 5535 5529 5522 5515 5508 5503 5497 5492 5487 5482 5476 5472 5467 5461 5456 5450 5445 5441 5437 5434 5429 5424 5420 5415 5413 5411 5408 5406 5404 5403 5403 5403 5402 5401 5400 5399 5400 5400 5400 5401
5536 5528 5521 5514 5507 5501 5494 5488 5483 5478 5473 5468 5462 5456 5449 5444 5438 5433 5427 5422 5418 5414 5410 5407 5403 5400 5398 5395 5393 5391 5390 5388 5388 5388 5387 5387 5386 5385 5386 5386 5387 5387 5387
5517 5509 5501 5494 5488 5481 5475 5469 5463 5457 5453 5447 5440 5433 5426 5420 5415 5410 5405 5400 5396 5393 5389 5385 5382 5381 5379 5377 5376 5375 5373 5373 5372 5372 5372 5372 5372 5371 5372 5372 5373 5374 5374
5498 5490 5482 5474 5467 5460 5453 5447 5441 5434 5428 5421 5415 5408 5401 5395 5390 5386 5381 5378 5375 5371 5368 5365 5362 5360 5359 5358 5357 5357 5357 5356 5357 5358 5358 5357 5357 5358 5359 5359 5360 5361 5362
5477 5470 5463 5455 5446 5439 5433 5426 5417 5410 5403 5397 5390 5383 5377 5372 5367 5363 5359 5355 5351 5349 5346 5343 5342 5341 5340 5340 5339 5339 5340 5340 5341 5342 5343 5344 5344 5344 5345 5346 5347 5349 5350
5457 5449 5442 5434 5424 5415 5407 5401 5394 5387 5381 5374 5367 5360 5354 5348 5343 5339 5335 5332 5329 5326 5325 5323 5322 5322 5321 5322 5321 5322 5323 5324 5325 5327 5329 5330 5331 5332 5333 5334 5335 5336 5339
5436 5428 5419 5410 5402 5393 5384 5376 5370 5364 5358 5351 5343 5336 5330 5324 5319 5314 5311 5308 5307 5305 5304 5304 5304 5303 5303 5303 5303 5304 5306 5308 5309 5312 5314 5316 5318 5320 5320 5322 5323 5325 5327
5415 5406 5397 5389 5381 5372 5364 5355 5346 5340 5335 5328 5322 5316 5310 5305 5300 5295 5291 5287 5285 5282 5282 5283 5284 5285 5286 5285 5287 5288 5290 5292 5294 5297 5300 5303 5305 5307 5309 5311 5313 5314 5316
5395 5386 5377 5368 5359 5352 5344 5335 5328 5322 5316 5310 5304 5298 5293 5288 5283 5279 5276 5270 5267 5264 5263 5263 5264 5266 5268 5269 5270 5272 5274 5276 5279 5282 5286 5289 5292 5294 5297 5300 5302 5304 5307